This demonstration page uses our WeatherBlox Daily Observations layout. Learn more.

Hourly Observations for January 6, 2020

Temp ( °F °C ) Dew Point ( °F °C ) Humidity (%) Winds ( mph kmh ) Pressure ( in mb ) Visibility ( mi km ) Precip ( " mm )
12:54 am 00:54 Clear 22 -5.6 18 -7.8 85 85 Calm 30.3 1026 10 16.0934 0 0
1:54 am 01:54 Clear 25 -3.9 19 -7.2 78 78 Calm 30.28 1026 10 16.0934 0 0
2:54 am 02:54 Clear 27 -2.8 21 -6.1 78 78 Calm 30.27 1025 10 16.0934 0 0
3:54 am 03:54 Clear 25 -3.9 20 -6.7 81 81 SSE 3 6 30.24 1024 10 16.0934 0 0
4:54 am 04:54 Clear 23 -5 20 -6.7 88 88 S 6 9 30.22 1023 10 16.0934 0 0
5:54 am 05:54 Clear 24 -4.4 20 -6.7 84 84 S 5 7 30.21 1023 10 16.0934 0 0
6:54 am 06:54 Partly Cloudy 25 -3.9 20 -6.7 81 81 Calm 30.23 1024 10 16.0934 0 0
7:54 am 07:54 Cloudy 26 -3.3 22 -5.6 84 84 Calm 30.24 1024 10 16.0934 0 0
8:54 am 08:54 Cloudy 28 -2.2 23 -5 81 81 SE 5 7 30.24 1024 10 16.0934 0 0
9:54 am 09:54 Cloudy 31 -0.6 24 -4.4 76 76 SE 3 6 30.25 1024 10 16.0934 0 0
10:54 am 10:54 Cloudy 35 1.7 25 -3.9 67 67 Calm 30.23 1024 10 16.0934 0 0
11:54 am 11:54 Mostly Cloudy 41 5 24 -4.4 51 51 SSW 14 22 30.18 1022 10 16.0934 0 0
12:54 pm 12:54 Cloudy 43 6.1 24 -4.4 47 47 SSW 12 19 30.12 1020 10 16.0934 0 0
1:54 pm 13:54 Mostly Sunny 45 7.2 24 -4.4 44 44 SSW 16 26 30.08 1019 10 16.0934 0 0
2:54 pm 14:54 Sunny 46 7.8 24 -4.4 42 42 WSW 18 30 30.07 1018 10 16.0934 0 0
3:54 pm 15:54 Mostly Cloudy 45 7.2 25 -3.9 46 46 WSW 10 17 30.08 1019 10 16.0934 0 0
4:54 pm 16:54 Sunny 42 5.6 26 -3.3 53 53 WNW 10 17 30.11 1020 10 16.0934 0 0
5:54 pm 17:54 Clear 38 3.3 25 -3.9 60 60 WNW 12 19 30.13 1020 10 16.0934 0 0
6:54 pm 18:54 Clear 37 2.8 26 -3.3 65 65 WNW 10 17 30.14 1021 10 16.0934 0 0
7:54 pm 19:54 Clear 34 1.1 26 -3.3 73 73 WNW 8 13 30.15 1021 10 16.0934 0 0
8:54 pm 20:54 Clear 33 0.6 25 -3.9 72 72 W 3 6 30.15 1021 10 16.0934 0 0
9:54 pm 21:54 Clear 34 1.1 25 -3.9 70 70 WNW 8 13 30.16 1021 10 16.0934 0 0
10:54 pm 22:54 Clear 33 0.6 24 -4.4 70 70 WNW 5 7 30.16 1021 10 16.0934 0 0
11:54 pm 23:54 Clear 36 2.2 23 -5 59 59 WNW 13 20 30.16 1021 10 16.0934 0 0

Powered by AerisWeather